Location: Newark
(48.8833°N, 0.9236°W)
Time: 12:08:35
(UTC+00:00)

OTV 5 (USA 277) - Pass Details

Date: 28 October 2019
Orbit: 310 x 324 km, 54.5° (Epoch: 17 October)

Event Time Altitude Azimuth Distance (km) Brightness Sun altitude
Rises 18:36:02 0° 206° (SSW) 2,051 ? -17.9°
Reaches altitude 10° 18:38:15 10° 189° (S) 1,227 ? -18.2°
Enters shadow 18:38:40 13° 183° (S) 1,093 ? -18.3°
